Location: *
(50.9167°S, 179.4000°W)
Time: 20:27:16
(UTC+00:00)

Cosmos 1959 Rocket - Pass Details

Date: 03 March 2024
Orbit: 946 x 997 km, 83.0° (Epoch: 16 April)

Event Time Altitude Azimuth Distance (km) Brightness Sun altitude
Exits shadow 13:35:03 74° 72° (ENE) 1,000 4.4 -29.7°
Maximum altitude 13:35:10 75° 84° (E) 999 4.4 -29.7°
Drops below altitude 10° 13:41:23 10° 167° (SSE) 2,722 7.7 -29.3°
Sets 13:43:55 0° 168° (SSE) 3,681 8.6 -29.1°
